Oroville, CA

5:43 AM PDT on May 24, 2017 (GMT -0700)
Oroville Municipal

Weather History for KOVE - February, 2012

Change the Weather History Date:

Thursday, February 16, 2012

  Actual Average Record
Temperature  
Mean Temperature 50 °F -  
Max Temperature 64 °F 60 °F 76 °F (1957)
Min Temperature 37 °F 40 °F 27 °F (1956)
Degree Days  
Heating Degree Days 14    
Moisture  
Dew Point 32 °F    
Average Humidity 51    
Maximum Humidity 76    
Minimum Humidity 30    
Precipitation  
Precipitation 0.00 in - - ()
Sea Level Pressure  
Sea Level Pressure 30.24 in    
Wind  
Wind Speed 7 mph (NW)    
Max Wind Speed 14 mph    
Max Gust Speed 18 mph    
Visibility 10 miles    
Events      
Averages and records for this station are not official NWS values.
T = Trace of Precipitation, MM = Missing Value Source: NWS Daily Summary

Daily Weather History Graph

Daily Weather History Graph

Search for Another Location

Airport or City:

Trip Planner

Search our weather history database for the weather conditions in past years. The results will help you decide how hot, cold, wet, or windy it might be!

Date:

Astronomy

Feb. 16, 2012 Rise Set
Actual Time 6:57 AM PST 5:43 PM PST
Civil Twilight 6:30 AM PST 6:11 PM PST
Nautical Twilight 5:58 AM PST 6:42 PM PST
Astronomical Twilight 5:27 AM PST 7:14 PM PST
Moon 2:57 AM PST (2/16) 12:41 PM PST (2/16)
Length of Visible Light 11h 41m
Length of Day
10h 46m
Waning Crescent, 27% of the Moon is Illuminated
Feb 16
Waning Crescent
Feb 21
New
Feb 29
First Quarter
Mar 8
Full
Mar 14
Last Quarter

Hourly Weather History & Observations

Time (PST) Temp. Windchill Dew Point Humidity Pressure Visibility Wind Dir Wind Speed Gust Speed Precip Events Conditions
12:53 AM 44.1 °F 40.8 °F 27.0 °F 51% 30.26 in 10.0 mi ENE 5.8 mph - N/A   Clear
1:53 AM 51.1 °F - 21.9 °F 32% 30.27 in 10.0 mi ENE 13.8 mph - N/A   Clear
2:53 AM 41.0 °F 35.8 °F 28.0 °F 60% 30.27 in 10.0 mi West 8.1 mph - N/A   Clear
3:53 AM 37.9 °F 32.7 °F 28.0 °F 68% 30.28 in 10.0 mi WNW 6.9 mph - N/A   Clear
4:53 AM 39.0 °F 34.8 °F 28.0 °F 65% 30.28 in 10.0 mi Variable 5.8 mph - N/A   Clear
5:53 AM 37.9 °F 32.7 °F 28.0 °F 68% 30.28 in 10.0 mi WNW 6.9 mph - N/A   Clear
6:53 AM 46.9 °F - 24.1 °F 41% 30.28 in 10.0 mi NNW 9.2 mph - N/A   Clear
7:53 AM 51.1 °F - 26.1 °F 38% 30.30 in 10.0 mi North 8.1 mph - N/A   Clear
8:53 AM 52.0 °F - 28.0 °F 40% 30.30 in 10.0 mi NNW 3.5 mph - N/A   Clear
9:53 AM 50.0 °F - 34.0 °F 54% 30.31 in 10.0 mi WNW 6.9 mph - N/A   Clear
10:53 AM 57.9 °F - 32.0 °F 37% 30.29 in 10.0 mi NW 5.8 mph - N/A   Clear
11:53 AM 59.0 °F - 34.0 °F 39% 30.26 in 10.0 mi West 10.4 mph - N/A   Clear
12:53 PM 61.0 °F - 32.0 °F 34% 30.24 in 10.0 mi WNW 11.5 mph 18.4 mph N/A   Clear
1:53 PM 63.0 °F - 34.0 °F 34% 30.22 in 10.0 mi WNW 11.5 mph - N/A   Clear
2:53 PM 64.0 °F - 33.1 °F 31% 30.20 in 10.0 mi NW 9.2 mph 18.4 mph N/A   Clear
3:53 PM 64.0 °F - 32.0 °F 30% 30.19 in 10.0 mi NW 4.6 mph - N/A   Clear
4:53 PM 63.0 °F - 35.1 °F 35% 30.18 in 10.0 mi Calm Calm - N/A   Clear
5:53 PM 59.0 °F - 37.0 °F 44% 30.19 in 10.0 mi SW 3.5 mph - N/A   Clear
6:53 PM 50.0 °F - 39.0 °F 66% 30.20 in 10.0 mi Calm Calm - N/A   Clear
7:53 PM 48.0 °F - 37.0 °F 66% 30.20 in 10.0 mi NNE 6.9 mph - N/A   Clear
8:53 PM 46.9 °F - 37.9 °F 71% 30.20 in 10.0 mi East 3.5 mph - N/A   Clear
9:53 PM 46.9 °F - 37.0 °F 68% 30.21 in 10.0 mi Calm Calm - N/A   Clear
10:53 PM 46.0 °F - 35.1 °F 66% 30.21 in 10.0 mi Calm Calm - N/A   Clear
11:53 PM 42.1 °F - 35.1 °F 76% 30.21 in 10.0 mi Calm Calm - N/A   Clear